Location: Aurora Center
(43.5271°N, 98.5894°W)
Time: 00:50:10
(UTC-05:00)

BlueWalker 3 - Pass Details

Date: 22 June 2024
Orbit: 480 x 492 km, 53.2° (Epoch: 15 July)

Event Time Altitude Azimuth Distance (km) Brightness Sun altitude
Rises 04:19:34 0° 301° (WNW) 2,538 5.4 -13.3°
Reaches altitude 10° 04:21:47 10° 295° (WNW) 1,656 4.4 -13.0°
Maximum altitude 04:25:21 44° 223° (SW) 669 2.1 -12.6°
Drops below altitude 10° 04:28:54 10° 150° (SSE) 1,650 4.4 -12.2°
Sets 04:31:07 0° 144° (SE) 2,527 5.4 -12.0°
